TimeCDT,TemperatureF,Dew PointF,Humidity,Sea Level PressureIn,VisibilityMPH,Wind Direction,Wind SpeedMPH,Gust SpeedMPH,PrecipitationIn,Events,Conditions,WindDirDegrees,DateUTC
12:58 AM,61.5,42.3,49,29.63,10.0,SSE,12.7,-,N/A,,Clear,160,2013-03-18 05:58:00
1:58 AM,60.3,41.5,50,29.62,10.0,South,15.0,-,N/A,,Clear,180,2013-03-18 06:58:00
2:58 AM,63.0,40.6,44,29.62,10.0,SSW,10.4,-,N/A,,Clear,200,2013-03-18 07:58:00
3:58 AM,62.2,41.5,47,29.61,10.0,South,12.7,-,N/A,,Partly Cloudy,190,2013-03-18 08:58:00
4:58 AM,63.1,38.3,40,29.60,10.0,SSW,15.0,-,N/A,,Clear,210,2013-03-18 09:58:00
5:58 AM,61.0,34.0,36,29.63,10.0,West,6.9,-,N/A,,Clear,260,2013-03-18 10:58:00
6:58 AM,57.2,35.6,44,29.69,10.0,NW,5.8,-,N/A,,Clear,310,2013-03-18 11:58:00
7:58 AM,57.0,34.0,42,29.77,10.0,NNW,13.8,-,N/A,,Clear,340,2013-03-18 12:58:00
8:58 AM,56.5,36.9,48,29.84,10.0,North,20.7,-,N/A,,Clear,10,2013-03-18 13:58:00
9:58 AM,54.3,38.8,56,29.89,10.0,North,20.7,31.1,N/A,,Clear,360,2013-03-18 14:58:00
10:58 AM,53.2,38.8,58,29.91,10.0,North,16.1,-,N/A,,Clear,350,2013-03-18 15:58:00
11:58 AM,56.5,39.6,53,29.91,10.0,NNE,18.4,20.7,N/A,,Clear,20,2013-03-18 16:58:00
12:58 PM,59.5,40.5,49,29.91,10.0,North,11.5,17.3,N/A,,Clear,360,2013-03-18 17:58:00
1:58 PM,62.1,40.3,45,29.89,10.0,ENE,13.8,-,N/A,,Clear,60,2013-03-18 18:58:00
2:58 PM,64.6,40.3,41,29.87,10.0,North,9.2,-,N/A,,Partly Cloudy,360,2013-03-18 19:58:00
3:58 PM,67.5,39.0,35,29.86,10.0,North,9.2,16.1,N/A,,Clear,360,2013-03-18 20:58:00
4:58 PM,67.3,37.9,34,29.86,10.0,NNE,8.1,-,N/A,,Partly Cloudy,20,2013-03-18 21:58:00
5:58 PM,67.5,36.7,32,29.87,10.0,Variable,5.8,-,N/A,,Clear,0,2013-03-18 22:58:00
6:58 PM,66.9,35.8,32,29.88,10.0,NNE,5.8,-,N/A,,Clear,20,2013-03-18 23:58:00
7:58 PM,63.7,35.2,35,29.89,10.0,ENE,6.9,-,N/A,,Clear,60,2013-03-19 00:58:00
8:58 PM,59.9,35.8,41,29.90,10.0,East,4.6,-,N/A,,Clear,80,2013-03-19 01:58:00
9:58 PM,58.1,36.1,44,29.93,10.0,ESE,5.8,-,N/A,,Clear,120,2013-03-19 02:58:00
10:58 PM,55.0,36.7,50,29.94,10.0,SE,3.5,-,N/A,,Clear,130,2013-03-19 03:58:00
11:58 PM,53.8,36.7,52,29.93,10.0,SSE,5.8,-,N/A,,Clear,160,2013-03-19 04:58:00